Time,TemperatureF,DewpointF,PressureIn,WindDirection,WindDirectionDegrees,WindSpeedMPH,WindSpeedGustMPH,Humidity,HourlyPrecipIn,Conditions,Clouds,dailyrainin,SolarRadiationWatts/m^2,SoftwareType,DateUTC
2017-12-13 00:13:00,40.5,31.0,30.17,North,357,0.0,2.0,69,0.00,,,0.00,0,weatherlink.com 1.10,2017-12-13 08:13:00,
2017-12-13 00:28:00,39.9,31.0,30.17,North,357,0.0,0.0,70,0.00,,,0.00,0,weatherlink.com 1.10,2017-12-13 08:28:00,
2017-12-13 00:58:00,38.3,31.0,30.17,North,357,0.0,0.0,75,0.00,,,0.00,0,weatherlink.com 1.10,2017-12-13 08:58:00,
2017-12-13 01:13:00,37.3,30.0,30.18,North,357,0.0,0.0,76,0.00,,,0.00,0,weatherlink.com 1.10,2017-12-13 09:13:00,
2017-12-13 01:28:00,36.2,30.0,30.18,North,357,0.0,0.0,77,0.00,,,0.00,0,weatherlink.com 1.10,2017-12-13 09:28:00,
2017-12-13 01:43:00,36.3,30.0,30.18,North,357,0.0,0.0,77,0.00,,,0.00,0,weatherlink.com 1.10,2017-12-13 09:43:00,
2017-12-13 02:28:00,37.3,29.0,30.19,North,357,1.0,3.0,73,0.00,,,0.00,0,weatherlink.com 1.10,2017-12-13 10:28:00,
2017-12-13 02:43:00,37.9,29.0,30.19,North,357,0.0,0.0,71,0.00,,,0.00,0,weatherlink.com 1.10,2017-12-13 10:43:00,
2017-12-13 03:28:00,35.6,28.0,30.19,North,357,0.0,0.0,75,0.00,,,0.00,0,weatherlink.com 1.10,2017-12-13 11:28:00,
2017-12-13 03:43:00,35.5,29.0,30.19,North,357,0.0,0.0,76,0.00,,,0.00,0,weatherlink.com 1.10,2017-12-13 11:43:00,
2017-12-13 03:58:00,34.9,28.0,30.20,North,357,0.0,0.0,76,0.00,,,0.00,0,weatherlink.com 1.10,2017-12-13 11:58:00,
2017-12-13 04:13:00,33.8,27.0,30.20,North,357,0.0,0.0,77,0.00,,,0.00,0,weatherlink.com 1.10,2017-12-13 12:13:00,
2017-12-13 04:28:00,34.4,28.0,30.18,North,357,0.0,0.0,78,0.00,,,0.00,0,weatherlink.com 1.10,2017-12-13 12:28:00,
2017-12-13 04:43:00,34.0,28.0,30.18,North,357,0.0,0.0,79,0.00,,,0.00,0,weatherlink.com 1.10,2017-12-13 12:43:00,
2017-12-13 04:58:00,33.1,28.0,30.19,North,357,0.0,0.0,81,0.00,,,0.00,0,weatherlink.com 1.10,2017-12-13 12:58:00,
2017-12-13 05:13:00,32.9,28.0,30.18,North,357,0.0,0.0,81,0.00,,,0.00,0,weatherlink.com 1.10,2017-12-13 13:13:00,
2017-12-13 05:28:00,32.8,28.0,30.18,North,357,0.0,0.0,81,0.00,,,0.00,0,weatherlink.com 1.10,2017-12-13 13:28:00,
2017-12-13 05:43:00,32.5,27.0,30.18,North,357,0.0,0.0,81,0.00,,,0.00,0,weatherlink.com 1.10,2017-12-13 13:43:00,
2017-12-13 06:13:00,-999.9,-99.9,30.18,North,-9999,-999.9,-999.0,-999,0.00,,,0.00,0,weatherlink.com 1.10,2017-12-13 14:13:00,
2017-12-13 07:14:00,-999.9,-99.9,30.18,North,-9999,-999.9,-999.0,-999,0.00,,,0.00,0,weatherlink.com 1.10,2017-12-13 15:14:00,
2017-12-13 07:44:00,-999.9,-99.9,30.18,North,-9999,-999.9,-999.0,-999,0.00,,,0.00,0,weatherlink.com 1.10,2017-12-13 15:44:00,
2017-12-13 07:59:00,31.3,26.0,30.19,North,357,0.0,0.0,82,0.00,,,0.00,54,weatherlink.com 1.10,2017-12-13 15:59:00,
2017-12-13 08:44:00,35.0,28.0,30.18,North,357,0.0,3.0,77,0.00,,,0.00,65,weatherlink.com 1.10,2017-12-13 16:44:00,
2017-12-13 09:00:00,35.3,28.0,30.18,North,357,0.0,0.0,75,0.00,,,0.00,149,weatherlink.com 1.10,2017-12-13 17:00:00,
2017-12-13 09:14:00,35.6,28.0,30.18,North,357,0.0,4.0,75,0.00,,,0.00,274,weatherlink.com 1.10,2017-12-13 17:14:00,
2017-12-13 09:44:00,39.3,30.0,30.19,North,357,3.0,4.0,70,0.00,,,0.00,345,weatherlink.com 1.10,2017-12-13 17:44:00,
2017-12-13 09:59:00,40.6,31.0,30.18,North,357,0.0,0.0,69,0.00,,,0.00,376,weatherlink.com 1.10,2017-12-13 17:59:00,
2017-12-13 10:14:00,42.5,32.0,30.18,North,357,1.0,5.0,67,0.00,,,0.00,404,weatherlink.com 1.10,2017-12-13 18:14:00,
2017-12-13 10:29:00,44.1,33.0,30.17,North,357,0.0,1.0,66,0.00,,,0.00,425,weatherlink.com 1.10,2017-12-13 18:29:00,
2017-12-13 11:15:00,49.9,34.0,30.14,North,357,0.0,2.0,55,0.00,,,0.00,471,weatherlink.com 1.10,2017-12-13 19:15:00,
2017-12-13 11:30:00,51.6,34.0,30.14,North,357,2.0,4.0,52,0.00,,,0.00,436,weatherlink.com 1.10,2017-12-13 19:30:00,
2017-12-13 11:45:00,52.3,35.0,30.12,North,356,0.0,6.0,52,0.00,,,0.00,475,weatherlink.com 1.10,2017-12-13 19:45:00,
2017-12-13 12:00:00,53.2,35.0,30.12,North,356,3.0,6.0,50,0.00,,,0.00,478,weatherlink.com 1.10,2017-12-13 20:00:00,
2017-12-13 12:15:00,54.2,35.0,30.11,North,356,0.0,4.0,49,0.00,,,0.00,473,weatherlink.com 1.10,2017-12-13 20:15:00,
2017-12-13 12:30:00,55.0,35.0,30.10,North,356,0.0,6.0,47,0.00,,,0.00,483,weatherlink.com 1.10,2017-12-13 20:30:00,
2017-12-13 12:45:00,55.9,35.0,30.09,North,356,3.0,4.0,45,0.00,,,0.00,475,weatherlink.com 1.10,2017-12-13 20:45:00,
2017-12-13 13:00:00,56.7,34.0,30.08,North,356,3.0,6.0,43,0.00,,,0.00,455,weatherlink.com 1.10,2017-12-13 21:00:00,
2017-12-13 13:45:00,59.5,34.0,30.06,North,356,0.0,3.0,38,0.00,,,0.00,374,weatherlink.com 1.10,2017-12-13 21:45:00,
2017-12-13 14:00:00,59.2,33.0,30.05,North,356,0.0,5.0,37,0.00,,,0.00,362,weatherlink.com 1.10,2017-12-13 22:00:00,
2017-12-13 14:15:00,59.5,32.0,30.05,North,356,0.0,4.0,36,0.00,,,0.00,338,weatherlink.com 1.10,2017-12-13 22:15:00,
2017-12-13 14:30:00,59.5,33.0,30.05,North,356,3.0,5.0,37,0.00,,,0.00,243,weatherlink.com 1.10,2017-12-13 22:30:00,
2017-12-13 14:45:00,59.5,33.0,30.05,North,356,2.0,4.0,37,0.00,,,0.00,178,weatherlink.com 1.10,2017-12-13 22:45:00,
2017-12-13 15:00:00,59.3,32.0,30.05,North,356,0.0,0.0,36,0.00,,,0.00,178,weatherlink.com 1.10,2017-12-13 23:00:00,
2017-12-13 15:15:00,59.2,33.0,30.04,North,356,0.0,0.0,37,0.00,,,0.00,127,weatherlink.com 1.10,2017-12-13 23:15:00,
2017-12-13 15:31:00,59.6,32.0,30.04,North,356,0.0,0.0,36,0.00,,,0.00,109,weatherlink.com 1.10,2017-12-13 23:31:00,
2017-12-13 15:45:00,59.6,33.0,30.04,North,356,0.0,0.0,37,0.00,,,0.00,79,weatherlink.com 1.10,2017-12-13 23:45:00,
2017-12-13 16:30:00,56.9,36.0,30.04,North,356,0.0,0.0,45,0.00,,,0.00,14,weatherlink.com 1.10,2017-12-14 00:30:00,
2017-12-13 16:45:00,55.6,36.0,30.04,North,356,0.0,0.0,48,0.00,,,0.00,0,weatherlink.com 1.10,2017-12-14 00:45:00,
2017-12-13 17:01:00,54.1,36.0,30.04,North,356,0.0,0.0,50,0.00,,,0.00,0,weatherlink.com 1.10,2017-12-14 01:01:00,
2017-12-13 17:16:00,52.9,37.0,30.05,North,356,0.0,0.0,55,0.00,,,0.00,0,weatherlink.com 1.10,2017-12-14 01:16:00,
2017-12-13 17:30:00,51.6,37.0,30.05,North,356,0.0,0.0,57,0.00,,,0.00,0,weatherlink.com 1.10,2017-12-14 01:30:00,
2017-12-13 18:16:00,48.9,37.0,30.05,North,356,0.0,0.0,64,0.00,,,0.00,0,weatherlink.com 1.10,2017-12-14 02:16:00,
2017-12-13 18:30:00,47.9,37.0,30.05,North,356,0.0,0.0,66,0.00,,,0.00,0,weatherlink.com 1.10,2017-12-14 02:30:00,
2017-12-13 18:45:00,47.1,37.0,30.05,North,356,0.0,0.0,68,0.00,,,0.00,0,weatherlink.com 1.10,2017-12-14 02:45:00,
2017-12-13 19:00:00,46.7,37.0,30.05,North,356,0.0,0.0,69,0.00,,,0.00,0,weatherlink.com 1.10,2017-12-14 03:00:00,
2017-12-13 19:24:00,46.0,37.0,30.06,North,356,0.0,0.0,70,0.00,,,0.00,0,weatherlink.com 1.10,2017-12-14 03:24:00,
2017-12-13 19:35:00,45.2,36.0,30.06,North,356,0.0,0.0,71,0.00,,,0.00,0,weatherlink.com 1.10,2017-12-14 03:35:00,
2017-12-13 19:46:00,44.3,36.0,30.06,North,356,0.0,0.0,73,0.00,,,0.00,0,weatherlink.com 1.10,2017-12-14 03:46:00,
2017-12-13 20:16:00,43.2,36.0,30.06,North,356,0.0,0.0,75,0.00,,,0.00,0,weatherlink.com 1.10,2017-12-14 04:16:00,
2017-12-13 20:31:00,42.9,36.0,30.06,North,356,0.0,0.0,76,0.00,,,0.00,0,weatherlink.com 1.10,2017-12-14 04:31:00,
2017-12-13 20:46:00,42.5,36.0,30.07,North,356,0.0,0.0,77,0.00,,,0.00,0,weatherlink.com 1.10,2017-12-14 04:46:00,
2017-12-13 21:15:00,41.8,35.0,30.07,North,356,0.0,0.0,78,0.00,,,0.00,0,weatherlink.com 1.10,2017-12-14 05:15:00,